TimeEST,TemperatureF,Dew PointF,Humidity,Sea Level PressureIn,VisibilityMPH,Wind Direction,Wind SpeedMPH,Gust SpeedMPH,PrecipitationIn,Events,Conditions,WindDirDegrees,DateUTC
12:54 AM,19.0,10.9,71,30.23,10.0,Calm,Calm,-,N/A,,Clear,0,2012-02-03 05:54:00
1:54 AM,15.1,10.0,80,30.25,10.0,Calm,Calm,-,N/A,,Clear,0,2012-02-03 06:54:00
2:54 AM,10.9,8.1,88,30.27,10.0,Calm,Calm,-,N/A,,Clear,0,2012-02-03 07:54:00
3:54 AM,9.0,6.1,88,30.28,10.0,Calm,Calm,-,N/A,,Clear,0,2012-02-03 08:54:00
4:54 AM,7.0,3.9,87,30.30,10.0,Calm,Calm,-,N/A,,Clear,0,2012-02-03 09:54:00
5:54 AM,3.9,1.0,88,30.32,10.0,Calm,Calm,-,N/A,,Clear,0,2012-02-03 10:54:00
7:54 AM,7.0,3.9,87,30.35,10.0,Calm,Calm,-,N/A,,Clear,0,2012-02-03 12:54:00
8:54 AM,19.9,14.0,78,30.36,10.0,Calm,Calm,-,N/A,,Clear,0,2012-02-03 13:54:00
9:54 AM,24.1,10.0,55,30.36,10.0,Calm,Calm,-,N/A,,Clear,0,2012-02-03 14:54:00
11:54 AM,28.0,8.1,43,30.32,10.0,North,4.6,-,N/A,,Mostly Cloudy,360,2012-02-03 16:54:00
12:54 PM,28.9,6.1,38,30.31,10.0,NNW,3.5,-,N/A,,Partly Cloudy,330,2012-02-03 17:54:00
1:54 PM,32.0,6.1,34,30.29,10.0,Variable,3.5,-,N/A,,Clear,0,2012-02-03 18:54:00
2:54 PM,32.0,6.1,34,30.28,10.0,Calm,Calm,-,N/A,,Clear,0,2012-02-03 19:54:00
3:54 PM,32.0,7.0,35,30.28,10.0,Calm,Calm,-,N/A,,Clear,0,2012-02-03 20:54:00
4:54 PM,27.0,6.1,41,30.29,10.0,Calm,Calm,-,N/A,,Scattered Clouds,0,2012-02-03 21:54:00
5:54 PM,21.0,8.1,57,30.28,10.0,Calm,Calm,-,N/A,,Scattered Clouds,0,2012-02-03 22:54:00
6:54 PM,19.0,7.0,59,30.28,10.0,Calm,Calm,-,N/A,,Mostly Cloudy,0,2012-02-03 23:54:00
7:54 PM,26.1,15.1,63,30.26,10.0,West,5.8,-,N/A,,Scattered Clouds,260,2012-02-04 00:54:00
8:54 PM,23.0,12.0,63,30.25,10.0,Calm,Calm,-,N/A,,Partly Cloudy,0,2012-02-04 01:54:00
9:54 PM,21.9,12.0,66,30.24,10.0,Calm,Calm,-,N/A,,Partly Cloudy,0,2012-02-04 02:54:00
10:54 PM,19.9,10.9,68,30.22,10.0,Calm,Calm,-,N/A,,Mostly Cloudy,0,2012-02-04 03:54:00
11:54 PM,19.0,10.9,71,30.22,10.0,Calm,Calm,-,N/A,,Overcast,0,2012-02-04 04:54:00